Content
SEND FEEDBACK

Daily
Averages
Monthly
Summary
United States of America

RAPID CITY, SOUTH DAKOTA


Home > North America > United States > South Dakota
Elevation: 3162 feet     Latitude: 44 03N     Longitude: 103 04W

WEATHER
 
SELECT A DAY
Number of Records: 204,399;   Date Range: 1/1/95 - 11/27/14
 
SHARE

PRINT THIS DATA

[ ← Previous Day ]
WEATHER ALMANAC - MARCH 4, 2014
[ Next Day → ]
[ °C ]   °F
Weather ElementAverageHighLow
Temperature14 °F17.6 °F (3:12 pm)6.1 °F (5:52 am)
Dewpoint8.7 °F14 °F (10:52 pm)1.4 °F (7:13 am)
Humidity79.5 %88 % (10:52 pm)70 % (10:52 am)
Barometer30.07 in30.23 in (9:52 pm)29.87 in (7:13 am)
Wind Speed4.5 mph11.5 mph (7:13 am)
Weather ElementAverage
Visibility10 mi
Wind DirectionENE (73 °)

Weather ElementTotal
Precipitation---
Heating Degree Days53.2 (Base 65)
Averaged from 30 records on March 4, 2014
WEATHER CONDITIONS BREAKOUT
WIND DIRECTION BREAKOUT
WEATHER BY HOUR - MARCH 4, 2014
[ °C ]   °F
Local TimeTemperatureDewpointHumidityBarometerVisibilityWind DirectionWind SpeedGust SpeedPrecipitationEventsConditions
1:52 AM10.0 °F6.1 °F84 %30.00 in10.0 miCalmClear
2:52 AM10.0 °F6.1 °F84 %29.97 in10.0 miEast (80°)5.8 mphClear
3:52 AM12.9 °F8.1 °F81 %29.97 in10.0 miNE (50°)8.1 mphScattered Clouds
4:52 AM8.1 °F3.9 °F83 %30.00 in10.0 miNNE (20°)8.1 mphOvercast
5:52 AM6.1 °F1.9 °F83 %30.03 in10.0 miNorth (10°)8.1 mphMostly Cloudy
6:52 AM7.0 °F1.9 °F80 %30.03 in10.0 miNNE (30°)6.9 mphScattered Clouds
7:13 AM6.8 °F1.4 °F79 %29.87 in10.0 miNorth (360°)11.5 mphMostly Cloudy
7:52 AM6.1 °F3.0 °F87 %30.07 in10.0 miNorth (10°)11.5 mphOvercast
8:52 AM10.0 °F5.0 °F80 %30.06 in10.0 miNNE (20°)6.9 mphOvercast
9:52 AM12.0 °F6.1 °F77 %30.08 in10.0 miNNE (20°)6.9 mphOvercast
10:52 AM15.1 °F7.0 °F70 %30.09 in10.0 miCalmMostly Cloudy
11:20 AM15.8 °F8.6 °F73 %29.90 in10.0 miVariable3.5 mphMostly Cloudy
11:52 AM15.1 °F8.1 °F74 %30.07 in10.0 miCalmMostly Cloudy
12:52 PM16.0 °F9.0 °F74 %30.07 in10.0 miENE (70°)4.6 mphOvercast
1:52 PM17.1 °F9.0 °F71 %30.07 in10.0 miNNE (30°)6.9 mphClear
2:52 PM17.1 °F10.0 °F74 %30.09 in10.0 miCalmMostly Cloudy
3:12 PM17.6 °F10.4 °F73 %29.92 in10.0 miEast (80°)3.5 mphScattered Clouds
3:52 PM17.1 °F10.9 °F77 %30.09 in10.0 miCalmClear
4:52 PM16.0 °F10.0 °F77 %30.14 in10.0 miCalmPartly Cloudy
5:21 PM15.8 °F10.4 °F79 %29.98 in10.0 miCalmMostly Cloudy
5:52 PM17.1 °F10.9 °F77 %30.17 in10.0 miSSE (150°)4.6 mphOvercast
6:48 PM17.6 °F12.2 °F79 %30.00 in10.0 miSSE (150°)4.6 mphOvercast
6:52 PM17.1 °F12.0 °F81 %30.19 in10.0 miSE (140°)4.6 mphOvercast
7:52 PM17.1 °F12.0 °F81 %30.22 in10.0 miSSE (160°)4.6 mphOvercast
8:45 PM17.6 °F12.2 °F79 %30.04 in10.0 miSouth (170°)4.6 mphOvercast
8:52 PM17.1 °F12.0 °F81 %30.22 in10.0 miSouth (170°)4.6 mphOvercast
9:27 PM15.8 °F12.2 °F86 %30.05 in10.0 miCalmOvercast
9:52 PM16.0 °F12.0 °F84 %30.23 in10.0 miSouth (170°)3.5 mphOvercast
10:52 PM17.1 °F14.0 °F88 %30.22 in10.0 miSSE (160°)5.8 mphOvercast
11:52 PM17.1 °F14.0 °F88 %30.23 in10.0 miSE (140°)4.6 mphOvercast
Hourly data recorded from KRAP, located miles away from Rapid City, South Dakota







STORIES FROM OUR PARTNERS